Wetbulb
32.97 25.37 23.34 27.18 28.94 27.77 25.97 22.91 21.00 24.85 28.65 26.56 24.99 25.44 28.07 31.24 31.77 31.51 32.33 33.12 34.01 34.94 37.55 37.83 37.74 37.95 38.04 38.45 38.81 39.57 39.78 41.19 43.09 44.12 44.09 44.42 43.99 45.73 47.05 48.87 50.80 53.29 55.64 58.74
28.53 21.83 28.56 29.98 27.81 25.17 23.48 20.26 19.91 24.59 27.82 26.59 25.15 24.24 28.12 30.14 30.92 32.15 32.24 32.61 33.54 34.43 34.78 35.55 36.28 36.63 36.60 36.71 37.15 37.43 38.02 39.06 40.81 43.10 43.51 44.31 44.44 45.57 47.01 48.00 50.55 54.06 55.21 57.71
23.86 26.41 30.00 26.60 24.82 22.59 22.62 20.35 20.35 19.91 24.47 26.36 24.40 22.24 25.34 29.58 31.54 32.25 31.87 32.15 32.35 32.26 32.54 33.62 34.26 34.76 35.16 34.79 35.28 35.68 36.40 37.32 38.67 40.44 42.85 43.30 43.94 44.45 44.74 45.56 46.58 50.30 54.05 57.65
24.21 28.75 26.05 24.52 23.19 24.17 17.09 24.72 23.07 20.61 18.71 13.13 23.87 10.44 21.26 26.51 27.36 28.75 29.26 30.40 31.41 31.99 32.82 32.99 32.82 32.50 32.90 33.24 34.43 34.57 35.19 35.79 37.34 38.67 39.46 39.93 40.23 40.77 43.34 45.15 46.66 47.10 55.35 57.94
22.49 23.71 23.26 21.42 22.22 24.84 19.11 24.57 21.69 20.39 17.88 17.09 17.02 13.22 19.93 26.45 24.93 27.12 28.47 29.43 30.37 31.45 31.45 30.74 30.82 31.11 31.98 32.56 32.93 33.78 34.22 34.81 36.08 37.57 38.64 39.44 39.30 41.91 43.13 44.56 45.82 48.19 50.96 58.43
24.35 29.73 27.28 24.22 25.28 24.32 24.61 20.90 20.51 20.54 17.45 8.76 15.27 15.60 17.37 21.98 22.86 25.77 27.64 28.17 29.11 29.66 29.73 30.07 30.58 30.65 30.54 31.70 31.82 32.26 32.48 33.23 35.08 35.75 38.41 39.15 38.96 40.26 41.68 43.24 43.69 46.87 51.20 56.90
22.17 23.32 27.88 27.06 21.00 23.58 19.56 17.35 8.79 7.99 8.56 7.99 19.67 15.06 18.57 25.15 26.75 24.64 23.88 26.36 27.61 27.95 28.14 27.59 27.06 27.45 28.35 28.68 29.47 30.06 30.16 30.44 32.72 33.86 35.63 37.70 39.04 40.64 41.34 42.58 43.47 43.98 47.17 54.88
13.69 11.77 22.39 25.78 22.23 18.38 18.93 16.72 9.23 0.85 3.92 8.03 17.88 9.92 18.03 26.65 26.53 25.88 26.98 26.01 26.89 26.46 26.29 25.40 25.47 25.82 26.26 26.90 27.31 27.40 27.83 28.47 30.49 31.61 33.77 36.27 38.21 40.58 41.87 42.46 43.91 46.77 47.85 54.46
13.45 12.99 24.52 24.86 25.55 23.20 16.93 13.21 20.04 11.37 12.03 7.90 13.01 19.33 24.85 25.94 24.30 24.80 24.28 24.91 24.13 23.98 23.44 23.22 24.04 24.36 24.81 24.82 24.67 25.18 25.46 26.76 28.33 29.56 32.75 34.52 37.48 40.96 41.45 42.96 44.04 44.00 48.93 54.37
18.82 11.18 21.34 22.91 23.35 23.47 19.84 21.39 11.52 13.17 3.05 1.56 10.50 12.84 14.62 19.75 20.14 21.29 21.31 22.04 22.07 22.37 21.34 21.48 22.05 22.31 23.15 23.60 23.56 23.78 24.93 25.61 27.11 29.06 30.66 33.72 36.61 40.58 43.57 42.82 43.67 44.83 50.38 54.28
21.58 17.13 15.56 20.31 17.53 16.29 17.06 15.33 15.91 15.16 12.66 5.46 3.17 8.79 23.47 19.17 18.88 19.57 20.86 21.30 20.80 20.24 20.27 19.84 20.32 21.09 21.38 21.83 21.11 21.66 23.02 23.85 25.21 26.62 29.52 32.68 34.46 39.04 42.91 43.59 43.76 44.62 50.78 53.07
21.95 17.92 11.15 13.83 20.90 17.68 17.33 15.85 16.05 9.85 7.64 11.16 9.15 8.84 22.86 20.89 23.28 24.12 20.39 20.05 20.31 20.06 19.28 18.73 19.33 19.36 19.48 18.98 19.09 19.46 21.19 21.88 23.45 25.66 27.33 31.21 34.61 37.41 40.66 44.08 43.14 45.00 51.64 51.44
18.61 13.81 7.18 10.31 15.26 16.86 15.79 17.02 16.62 16.61 15.23 8.42 5.57 9.40 22.14 23.20 23.75 23.44 19.24 18.94 18.89 18.84 18.08 17.70 17.56 16.87 17.64 17.11 17.44 17.78 19.98 20.26 22.52 23.95 25.81 31.72 34.20 36.73 39.50 42.44 42.79 49.68 49.75 48.37
22.21 14.49 9.96 5.39 11.42 16.20 12.35 14.22 16.65 14.69 8.66 9.64 10.19 12.10 17.06 20.05 20.69 20.71 18.89 18.67 18.54 17.95 16.78 16.51 15.71 15.95 16.58 16.47 16.33 17.01 18.56 20.75 21.42 22.91 30.14 33.25 35.32 36.89 40.30 43.36 45.46 48.23 47.53 46.39
17.36 8.78 11.94 12.50 15.32 15.83 14.10 13.38 14.16 12.39 13.00 9.08 10.74 10.75 14.91 18.50 20.00 19.01 20.22 18.45 16.66 15.97 15.61 15.00 14.25 14.57 14.68 14.70 15.21 16.58 17.87 19.80 20.39 22.91 27.63 32.49 34.75 36.21 36.98 36.65 40.64 43.03 44.07 43.38
17.86 9.57 13.36 9.43 14.29 13.98 10.38 13.39 14.12 13.50 13.04 11.31 11.68 10.63 19.70 21.75 21.63 21.19 19.63 16.23 14.94 14.78 14.57 14.41 14.22 13.79 13.05 13.42 13.74 16.14 17.09 18.20 20.34 22.03 24.78 31.69 32.63 34.04 35.35 35.82 35.68 37.29 37.92 37.94
14.40 11.96 10.50 6.11 11.09 10.67 7.89 13.49 14.44 14.53 14.63 13.97 12.66 18.36 22.48 20.17 19.92 19.81 17.19 15.51 14.41 14.04 13.83 13.30 13.43 12.80 12.99 12.96 14.12 15.19 16.53 17.94 19.67 20.58 22.23 27.44 31.06 32.45 34.06 34.42 35.08 33.44 34.75 35.96
13.28 12.76 12.87 7.59 10.90 2.01 14.47 16.49 15.08 13.22 15.24 19.35 19.44 20.96 20.19 19.46 19.49 19.40 18.68 15.21 14.21 13.46 13.40 13.42 13.40 12.79 13.32 13.38 14.89 16.64 16.91 16.22 18.23 19.21 20.57 23.13 26.93 27.70 30.30 32.24 31.83 31.93 33.02 33.06
18.89 14.54 10.36 7.13 7.96 12.40 15.57 17.03 17.02 13.72 16.00 22.63 19.61 20.35 21.42 19.62 19.42 19.35 17.50 15.43 14.15 13.61 14.11 14.30 14.17 13.67 13.16 12.95 15.11 15.74 15.50 14.82 16.25 17.26 19.03 21.09 23.40 25.07 26.71 26.94 28.51 30.91 32.09 31.28
19.69 19.77 13.05 10.59 5.38 2.87 14.31 18.88 19.01 16.86 12.51 22.32 18.49 19.22 19.80 19.94 17.99 18.95 15.21 15.43 14.30 14.05 13.75 14.58 14.12 13.84 12.46 12.63 15.39 14.31 13.05 12.83 14.03 16.39 18.80 20.32 22.98 23.86 24.03 25.77 26.50 28.38 29.48 29.19
12.98 14.54 10.27 11.48 9.30 12.54 17.89 19.45 21.25 11.44 14.10 20.80 20.56 20.11 19.94 18.79 20.42 17.44 14.84 15.74 15.10 14.38 13.62 15.84 14.45 12.22 11.23 12.28 14.57 12.31 11.52 10.62 14.37 16.66 18.28 19.73 21.93 24.02 25.14 25.79 26.82 27.19 28.10 29.39
11.14 11.07 11.61 11.48 7.76 5.59 20.94 21.49 16.06 20.43 23.57 22.39 22.16 21.98 19.57 21.06 18.96 15.92 15.67 15.11 15.64 14.73 14.42 14.56 13.57 12.78 11.62 11.57 11.57 11.11 8.91 11.68 14.84 16.03 16.45 17.57 19.96 22.95 25.14 25.67 26.14 26.59 26.85 26.87
11.25 15.91 13.64 14.24 14.72 23.43 23.85 23.14 26.45 23.28 20.38 23.47 23.18 24.59 22.30 20.78 20.02 18.35 18.47 18.41 17.65 16.78 15.50 15.12 13.98 13.17 12.21 11.03 9.77 8.65 8.70 11.07 13.47 14.38 15.20 16.00 18.99 20.79 23.42 24.38 25.52 25.46 26.16 26.11
18.99 22.07 16.34 16.11 21.17 22.82 24.87 26.06 26.36 24.17 22.41 24.69 25.01 24.60 23.86 21.21 22.26 19.89 19.03 19.20 18.19 16.74 15.08 14.44 13.88 12.20 10.58 10.74 9.54 7.06 7.94 9.41 13.32 12.82 13.46 15.58 15.93 18.74 20.33 23.00 24.44 25.13 25.39 24.93
18.83 20.14 17.30 17.61 21.55 23.82 24.86 25.35 25.00 24.29 25.16 24.75 25.93 24.40 23.52 23.02 22.25 21.23 19.47 18.23 18.12 16.72 15.24 13.85 12.46 11.92 10.08 9.58 8.03 5.79 5.26 7.26 13.34 13.43 13.14 13.98 15.44 16.16 18.75 20.51 22.76 23.01 24.65 25.96
20.45 18.08 16.03 16.23 21.49 19.54 21.89 24.21 24.04 21.46 21.67 22.30 22.75 23.48 24.61 22.74 22.07 21.42 19.35 19.23 18.02 16.19 14.46 13.70 11.82 11.33 9.54 8.25 6.22 3.89 2.83 5.64 10.58 12.86 12.79 11.63 13.71 14.61 15.84 17.62 20.18 23.92 24.39 25.30
MSLP
1014.97 1015.12 1013.72 1012.78 1012.21 1011.41 1010.68 1010.41 1009.79 1009.28 1008.84 1008.17 1007.43 1006.30 1005.13 1005.12 1004.67 1003.69 1003.26 1002.92 1002.63 1002.70 1002.94 1004.29 1005.13 1005.44 1005.44 1005.28 1005.02 1004.70 1004.36 1003.93 1003.69 1003.32 1002.71 1002.42 1002.03 1001.90 1001.64 1001.49 1001.22 1000.92 1000.42 1000.19
1014.56 1013.82 1013.20 1012.72 1012.65 1012.02 1011.51 1010.82 1010.09 1009.37 1008.70 1008.01 1006.95 1005.61 1004.86 1004.37 1003.22 1002.38 1002.32 1002.53 1002.48 1002.85 1003.86 1004.54 1004.77 1004.96 1004.94 1004.72 1004.65 1004.42 1004.16 1003.69 1003.30 1002.89 1002.42 1001.97 1001.58 1001.24 1000.71 1000.58 1000.39 999.98 999.71 999.40
1014.65 1013.09 1013.08 1012.93 1012.37 1011.76 1011.20 1010.77 1010.04 1009.52 1008.93 1008.22 1006.96 1004.73 1004.23 1003.45 1002.51 1001.97 1002.69 1003.56 1003.89 1004.10 1004.31 1004.64 1004.69 1004.72 1004.63 1004.47 1004.38 1004.17 1003.95 1003.58 1003.06 1002.63 1002.19 1001.74 1001.25 1000.76 1000.40 1000.09 1000.03 999.73 999.22 998.53
1014.73 1013.59 1013.14 1012.87 1012.14 1011.77 1011.36 1011.16 1010.47 1010.12 1009.60 1008.31 1007.65 1005.09 1003.95 1003.18 1002.83 1002.91 1003.68 1004.16 1004.27 1004.51 1004.71 1004.88 1004.73 1004.67 1004.60 1004.41 1004.35 1004.04 1003.78 1003.36 1002.80 1002.36 1001.85 1001.27 1000.70 999.85 999.41 999.37 999.31 999.16 998.28 997.52
1013.94 1013.48 1013.20 1013.00 1012.22 1012.18 1011.65 1011.41 1011.21 1010.76 1009.84 1008.99 1006.77 1006.55 1002.89 1002.81 1002.09 1002.52 1003.92 1004.49 1004.95 1005.05 1004.91 1004.98 1005.00 1004.78 1004.68 1004.44 1004.04 1003.65 1003.18 1002.70 1002.28 1001.83 1001.27 1000.64 1000.12 999.36 998.80 998.44 998.23 998.09 997.89 996.70
1014.39 1013.96 1013.45 1012.96 1012.73 1012.83 1012.55 1012.20 1011.33 1010.15 1009.92 1008.64 1006.47 1005.83 1003.24 1002.78 1003.31 1003.72 1004.44 1005.28 1005.42 1005.24 1005.10 1005.07 1005.02 1004.81 1004.35 1004.12 1003.77 1003.34 1002.71 1001.92 1001.56 1001.27 1000.47 999.92 999.52 998.91 997.85 997.48 997.43 997.29 996.92 996.01
1014.40 1013.30 1012.30 1012.83 1013.05 1012.78 1013.31 1012.63 1011.38 1009.89 1009.24 1007.31 1006.22 1005.59 1003.73 1003.44 1003.86 1005.03 1005.86 1006.05 1006.09 1005.97 1005.53 1005.28 1005.28 1004.90 1004.39 1003.88 1003.34 1002.92 1002.40 1001.52 1001.24 1000.67 1000.04 999.34 998.56 998.06 997.24 996.52 996.44 996.45 996.38 995.44
1014.23 1012.96 1012.87 1012.91 1013.00 1013.09 1012.97 1013.19 1012.49 1010.78 1009.37 1007.91 1007.26 1004.97 1003.95 1003.79 1004.70 1005.86 1006.32 1006.84 1006.63 1006.38 1006.13 1005.91 1005.59 1005.12 1004.47 1003.89 1003.36 1002.68 1001.99 1001.06 1000.68 1000.10 999.22 998.60 997.90 997.01 996.09 995.72 995.48 995.16 995.32 994.57
1015.24 1013.84 1013.31 1012.97 1013.05 1013.39 1013.00 1013.35 1012.92 1012.15 1010.62 1009.16 1006.96 1004.72 1003.63 1004.12 1005.16 1006.16 1006.70 1006.98 1006.92 1006.91 1006.80 1006.34 1005.78 1005.15 1004.34 1003.68 1003.18 1002.58 1001.77 1000.73 999.93 999.16 998.25 997.33 996.56 995.63 994.83 994.38 994.43 994.55 994.29 993.79
1015.85 1014.43 1013.61 1013.20 1013.43 1013.03 1013.37 1013.42 1013.16 1012.33 1010.44 1008.65 1006.74 1005.45 1004.66 1005.16 1006.24 1007.02 1007.28 1007.26 1007.46 1007.59 1007.48 1006.99 1006.29 1005.53 1004.68 1003.89 1003.13 1002.35 1001.38 1000.20 999.19 998.18 997.21 996.16 995.25 994.39 993.50 993.37 993.01 993.09 993.15 993.08
1016.68 1015.62 1013.98 1013.97 1013.28 1013.13 1013.67 1013.44 1013.45 1012.91 1011.61 1009.78 1007.85 1006.13 1005.73 1006.49 1007.40 1007.64 1007.67 1007.91 1008.04 1007.99 1007.84 1007.44 1006.77 1005.86 1004.91 1003.85 1002.84 1001.72 1000.47 999.33 998.18 997.15 995.95 994.91 994.03 993.44 992.63 992.05 991.98 991.86 992.10 992.41
1016.53 1015.53 1014.50 1014.08 1013.56 1013.92 1013.97 1013.71 1013.70 1012.87 1011.81 1011.07 1010.16 1006.37 1006.27 1006.98 1007.26 1007.63 1008.18 1008.36 1008.42 1008.39 1008.03 1007.58 1006.81 1005.84 1004.78 1003.66 1002.43 1001.21 999.90 998.52 997.22 995.99 994.73 993.50 992.67 992.39 991.93 990.87 990.80 990.96 991.34 991.67
1017.47 1016.11 1015.25 1013.95 1014.39 1014.23 1013.92 1013.86 1013.95 1013.60 1012.91 1011.22 1010.34 1007.60 1007.26 1007.20 1007.28 1008.18 1008.70 1008.80 1008.77 1008.43 1008.00 1007.51 1006.74 1005.79 1004.68 1003.36 1002.11 1000.73 999.21 997.70 996.04 994.49 993.07 991.62 991.13 991.10 990.74 990.20 989.68 990.38 990.45 991.45
1017.24 1016.60 1016.49 1015.12 1014.09 1014.17 1013.61 1013.27 1013.72 1013.76 1012.66 1011.26 1010.08 1008.51 1007.55 1007.66 1008.02 1008.52 1008.92 1009.12 1008.98 1008.48 1008.25 1007.70 1006.91 1005.88 1004.81 1003.51 1002.19 1000.52 998.69 996.99 995.21 993.38 991.04 989.72 989.33 989.57 989.43 989.36 989.06 989.63 989.85 991.47
1017.50 1016.65 1015.99 1015.43 1014.77 1014.18 1013.54 1013.15 1012.92 1013.05 1012.42 1012.14 1009.68 1009.81 1008.40 1008.33 1008.68 1009.03 1009.15 1009.41 1009.18 1008.70 1008.43 1007.87 1007.14 1006.01 1005.05 1003.57 1002.12 1000.24 998.64 996.72 995.15 992.93 990.79 989.10 988.16 988.18 988.68 988.75 988.48 988.72 990.02 991.62
1017.14 1016.18 1015.43 1014.53 1013.83 1013.51 1013.15 1012.49 1012.37 1012.27 1012.10 1011.87 1011.04 1009.82 1008.80 1008.76 1008.88 1008.96 1009.41 1009.82 1009.51 1009.25 1009.08 1008.47 1007.62 1006.62 1005.52 1003.98 1002.52 1000.45 998.93 997.15 995.58 993.50 991.49 989.64 989.05 989.26 989.45 989.07 989.37 988.59 991.34 991.63
1016.31 1015.77 1015.12 1013.95 1013.93 1013.56 1012.62 1011.69 1011.92 1011.91 1011.90 1011.62 1010.37 1009.28 1008.81 1008.73 1008.98 1009.39 1009.94 1010.32 1010.13 1009.99 1009.71 1009.10 1008.22 1007.32 1006.37 1004.69 1003.15 1000.91 999.52 997.90 995.95 993.85 992.39 991.75 990.66 989.63 988.46 989.50 990.40 991.38 991.71 992.32
1015.62 1015.50 1015.13 1013.96 1013.49 1012.39 1011.37 1011.58 1011.85 1011.85 1011.40 1010.95 1010.39 1009.52 1009.32 1009.39 1009.57 1009.94 1010.48 1010.94 1010.75 1010.70 1010.29 1009.71 1009.00 1008.01 1007.04 1005.61 1004.01 1001.94 1000.40 998.88 997.14 995.66 993.95 991.97 990.20 989.63 990.54 991.35 992.53 993.03 993.09 993.70
1015.36 1015.20 1014.47 1013.79 1012.65 1011.55 1010.76 1011.65 1011.90 1011.82 1010.70 1010.35 1010.16 1009.54 1009.30 1009.54 1009.74 1010.04 1010.76 1011.44 1011.32 1011.34 1011.03 1010.52 1009.75 1008.95 1007.68 1006.81 1004.98 1003.64 1002.01 999.28 997.15 995.27 994.20 994.17 993.69 993.70 993.91 993.78 993.78 994.45 994.08 995.80
1014.78 1014.32 1014.35 1013.54 1012.51 1011.29 1011.34 1011.43 1011.72 1011.80 1010.69 1010.11 1010.15 1009.61 1009.56 1009.53 1009.44 1010.31 1011.03 1011.61 1011.58 1011.44 1011.36 1010.71 1010.06 1009.44 1008.31 1007.59 1006.12 1004.50 1002.93 1001.91 1000.08 999.80 998.81 997.89 996.99 996.71 996.11 996.72 995.87 996.44 996.22 997.74
1014.55 1013.98 1013.65 1012.92 1012.06 1011.38 1011.59 1011.41 1011.37 1011.27 1011.13 1010.19 1010.26 1010.04 1009.96 1009.90 1010.52 1010.94 1011.29 1011.52 1012.05 1011.44 1011.33 1010.92 1010.55 1009.99 1009.49 1008.39 1007.56 1006.40 1005.20 1004.29 1003.64 1002.19 1000.93 1000.34 999.54 998.70 997.72 997.82 998.08 998.41 998.94 999.18
1014.98 1013.98 1013.15 1012.87 1012.09 1011.40 1011.32 1011.34 1011.33 1011.13 1010.48 1010.33 1010.17 1010.06 1010.13 1010.12 1010.44 1010.99 1011.25 1011.46 1011.75 1011.88 1011.09 1011.19 1010.99 1010.70 1010.28 1009.56 1008.39 1007.92 1007.56 1006.84 1005.51 1004.20 1003.39 1002.91 1002.07 1001.45 1001.17 999.91 999.72 999.52 999.20 999.96
1014.49 1014.14 1013.83 1013.52 1011.68 1010.97 1011.29 1011.05 1010.73 1010.97 1010.85 1010.34 1010.18 1009.85 1009.91 1009.96 1010.18 1010.55 1010.78 1011.14 1011.41 1011.84 1011.88 1011.51 1011.54 1011.20 1010.86 1010.54 1010.40 1009.61 1009.29 1008.69 1007.55 1006.80 1005.90 1005.34 1003.96 1003.48 1002.51 1001.55 1001.89 1001.58 1002.22 1002.99
1013.63 1013.60 1013.46 1013.12 1011.23 1011.00 1010.91 1010.80 1010.62 1010.73 1010.77 1010.33 1010.11 1009.87 1009.78 1009.78 1009.82 1010.17 1010.62 1010.94 1011.38 1011.76 1012.21 1012.20 1011.61 1011.66 1011.65 1011.37 1010.94 1010.88 1010.24 1009.11 1008.42 1007.83 1007.24 1006.63 1006.06 1005.48 1004.77 1004.50 1004.52 1004.68 1005.11 1005.65
1013.79 1013.45 1012.86 1012.27 1011.41 1010.94 1010.74 1010.73 1010.69 1010.70 1010.60 1010.52 1010.12 1010.06 1009.90 1009.78 1009.71 1010.06 1010.43 1010.85 1011.28 1011.81 1012.29 1012.70 1012.91 1012.58 1012.42 1012.46 1012.41 1012.26 1011.72 1010.71 1009.62 1009.17 1009.09 1008.65 1007.79 1007.61 1007.52 1007.17 1006.78 1007.19 1007.56 1007.46
1013.08 1012.66 1012.76 1011.92 1012.12 1012.38 1011.63 1011.39 1011.43 1011.54 1011.33 1011.17 1010.78 1010.11 1009.95 1010.03 1009.90 1010.13 1010.56 1010.90 1011.31 1011.81 1012.39 1012.84 1013.13 1013.39 1013.42 1013.27 1013.37 1013.30 1012.99 1012.09 1011.12 1010.19 1009.68 1009.63 1009.43 1009.38 1008.90 1008.69 1008.71 1008.94 1008.96 1008.79
Wind_Speed
11 12 16 22 23 26 24 26 30 27 25 23 23 27 29 26 26 29 27 25 23 20 15 8 10 12 15 16 16 16 16 18 13 10 10 10 11 10 11 11 15 17 13 14
14 19 22 17 21 22 23 25 26 26 25 21 24 28 29 27 29 26 19 16 17 11 11 13 14 15 16 18 18 18 18 19 15 10 10 11 10 10 10 10 12 15 17 15
19 25 24 18 21 24 22 23 24 27 22 20 22 27 21 23 20 11 4 6 9 11 14 16 18 18 18 19 19 19 19 20 18 18 11 11 12 10 11 12 11 14 19 17
13 17 14 20 25 22 20 22 21 19 18 17 19 20 24 18 11 3 6 7 9 13 16 18 20 20 20 19 18 20 20 20 19 20 16 19 15 14 12 12 12 13 19 18
24 27 24 19 21 19 20 18 16 19 19 18 24 11 21 16 16 3 4 7 12 16 20 21 20 21 20 19 18 18 20 20 20 20 20 15 18 15 12 11 14 15 18 17
23 23 20 18 19 15 14 15 17 21 8 9 17 9 11 10 5 5 3 9 16 20 21 21 19 20 19 18 19 18 20 21 20 19 21 20 21 20 15 14 12 11 13 13
19 19 13 7 10 4 5 10 8 7 6 11 7 10 16 20 10 4 5 13 17 19 20 20 20 20 20 21 21 18 20 20 19 19 20 22 22 22 23 18 14 14 14 12
16 16 16 2 10 10 17 9 8 9 12 16 20 10 5 9 5 4 7 14 16 18 19 20 21 20 20 20 20 21 20 20 19 19 21 20 23 16 17 19 14 11 15 14
12 12 24 16 16 8 2 7 7 8 16 12 11 16 12 6 2 5 13 19 19 19 19 22 22 21 21 20 21 19 20 20 20 21 19 21 21 23 18 20 18 15 18 14
6 17 13 9 5 8 11 6 6 5 6 13 13 19 12 12 11 12 16 19 19 17 18 19 19 19 18 19 18 19 19 19 20 20 19 18 20 21 19 19 20 19 19 18
18 7 18 8 6 10 5 5 7 5 8 10 13 11 7 7 4 14 15 17 17 16 14 16 17 18 17 17 17 18 18 17 17 19 19 19 19 21 19 19 20 19 21 14
17 8 9 19 5 2 4 5 7 5 13 12 13 20 1 6 10 9 13 17 16 14 14 15 16 17 17 17 18 17 17 16 16 16 16 17 20 20 20 19 20 19 16 14
13 8 15 14 5 2 5 3 6 10 11 16 13 12 3 11 17 11 13 15 15 16 15 16 17 17 17 18 18 18 17 17 16 16 17 16 18 19 20 20 17 20 16 14
21 11 17 18 13 13 14 18 13 11 9 16 16 24 20 17 16 13 12 12 13 13 14 15 16 17 17 18 18 19 18 16 17 16 13 11 17 20 20 14 14 17 16 16
8 15 14 19 17 15 17 19 18 16 17 15 23 19 24 19 12 10 10 11 13 15 16 17 18 18 19 19 20 19 18 16 17 15 11 6 6 8 9 9 10 15 15 14
8 12 10 15 11 11 14 16 15 14 14 15 17 21 11 5 7 8 9 11 12 14 16 17 18 19 19 20 20 20 18 18 16 13 12 8 11 12 12 13 13 17 11 14
7 5 5 11 4 8 10 6 3 3 4 5 7 12 13 11 9 7 9 10 12 13 15 16 17 17 17 20 20 21 19 18 16 17 18 12 10 14 18 18 16 15 13 16
5 6 5 9 9 5 3 2 1 4 7 9 12 12 9 9 8 5 4 7 11 12 14 15 14 16 16 18 19 19 18 18 17 15 18 15 22 23 20 18 17 13 17 18
9 8 4 4 6 11 3 4 2 1 4 6 8 10 8 7 6 3 3 3 7 9 11 11 12 13 14 15 18 17 17 21 22 25 26 26 21 20 17 20 17 13 20 16
5 9 5 2 6 5 6 3 2 1 3 1 3 8 8 9 5 3 2 4 6 7 8 11 12 12 13 15 16 16 20 21 23 22 20 20 18 16 19 15 17 15 18 16
7 1 7 9 6 4 6 8 2 5 8 6 5 9 8 5 3 2 1 2 3 7 8 10 10 10 12 14 13 16 17 19 18 18 20 19 20 17 18 17 16 14 15 14
5 7 2 3 4 3 1 6 6 5 7 5 8 6 7 7 3 2 2 2 3 4 9 9 9 9 10 13 13 14 15 15 15 16 17 17 17 15 13 18 17 17 18 17
4 4 6 5 7 11 2 9 11 4 6 9 8 9 6 8 6 4 4 3 1 3 5 7 7 8 9 11 10 11 12 12 12 12 13 13 14 14 17 19 17 14 16 13
10 3 6 10 3 6 9 7 5 4 9 11 11 10 9 9 7 6 4 3 2 2 3 5 8 8 9 10 12 11 12 13 11 12 13 13 14 15 16 13 13 12 12 10
11 14 10 11 16 9 5 11 7 11 7 10 11 8 9 8 7 7 6 4 3 2 1 2 3 6 8 9 10 10 12 12 10 10 10 11 10 12 10 12 12 11 11 12
10 14 8 7 8 5 12 12 12 9 10 12 13 12 7 8 8 5 6 4 3 2 2 1 3 3 5 6 6 8 8 9 9 9 9 9 8 7 8 7 7 19 19 20
Wind_Direction
266 259 261 277 291 299 293 287 288 283 289 290 283 285 279 286 285 284 284 281 277 275 291 319 288 293 291 289 290 290 292 287 281 279 264 250 254 257 254 252 252 259 256 255
280 256 272 298 299 286 287 280 281 281 288 287 291 284 289 287 282 282 273 284 285 305 303 295 302 300 294 292 291 288 284 281 278 269 262 264 262 266 264 254 260 254 243 242
290 284 297 293 294 292 284 284 285 295 305 290 282 282 291 304 301 310 45 300 302 292 304 306 304 303 300 295 294 290 287 282 279 274 271 269 266 255 254 250 254 261 255 234
287 297 280 290 296 290 293 288 288 296 300 295 305 295 291 290 281 252 198 239 294 310 311 309 309 305 302 298 295 290 283 278 272 272 266 259 258 254 243 244 246 240 259 233
282 290 294 300 283 309 289 293 301 289 288 295 284 268 281 280 287 129 224 308 311 312 312 311 307 304 300 297 292 289 284 278 273 267 263 258 260 255 251 248 247 245 252 236
277 284 281 271 295 300 301 299 294 279 273 249 263 250 289 318 336 304 292 317 317 320 313 309 310 306 302 300 297 292 288 282 276 270 271 253 254 256 247 233 236 247 248 231
316 301 297 287 288 272 247 293 294 278 227 275 331 279 274 309 7 22 322 321 324 313 312 314 313 308 306 303 300 297 289 281 280 273 266 262 255 249 249 239 230 227 253 223
304 314 328 287 263 296 298 295 281 300 300 311 311 273 274 300 148 189 308 336 318 320 319 317 314 311 305 302 300 297 293 285 277 269 263 254 261 243 239 233 235 238 241 223
298 290 310 290 295 274 3 251 309 290 263 268 255 262 277 58 104 315 332 327 327 326 323 318 316 313 312 310 306 298 292 283 276 269 264 254 250 248 235 227 226 227 249 222
295 288 302 303 311 237 233 346 281 240 287 307 302 308 301 351 347 327 319 327 327 324 321 317 316 315 311 309 305 300 291 285 278 272 263 256 246 247 237 229 225 220 237 210
286 266 293 287 234 276 245 250 218 271 275 299 311 304 357 351 354 309 316 330 328 328 325 320 317 313 310 309 305 300 294 288 279 269 261 251 241 244 248 225 225 221 228 181
287 289 308 298 315 302 248 277 284 262 304 304 296 279 270 140 324 324 337 333 333 333 331 326 321 318 317 315 311 309 302 296 286 277 265 251 237 232 242 230 223 229 186 167
322 298 303 287 213 115 223 184 253 274 280 275 286 283 222 286 336 358 339 334 338 337 332 330 329 328 323 320 320 317 312 305 301 295 271 243 226 226 231 238 219 200 156 145
299 273 276 272 306 318 300 302 280 259 266 296 275 289 300 312 331 343 334 335 334 323 328 328 330 330 329 325 325 321 319 318 322 306 293 248 216 217 222 218 197 169 145 145
297 280 292 297 280 287 283 283 277 263 262 265 288 297 294 306 325 319 316 336 330 330 337 334 333 330 332 329 331 329 330 335 329 324 329 304 123 128 133 109 157 130 140 141
279 277 286 288 294 294 282 275 275 270 270 268 273 278 279 308 295 308 344 341 331 332 336 333 332 332 335 331 330 331 339 346 339 349 352 11 72 96 110 98 91 83 119 122
259 260 287 285 343 308 270 255 220 268 219 250 295 317 329 316 320 349 334 337 333 333 334 336 335 333 336 331 330 337 343 345 355 11 18 13 75 94 85 75 86 73 87 93
242 244 246 285 295 256 61 127 18 221 279 251 273 295 317 305 315 308 350 333 329 334 334 334 333 331 337 332 338 339 349 355 6 11 20 29 41 52 52 67 65 79 84 79
217 227 261 277 295 287 290 72 358 317 276 264 274 297 318 312 292 148 11 16 319 328 327 324 327 331 332 343 340 347 355 356 12 12 18 23 25 46 54 57 51 53 79 68
296 214 213 210 288 307 47 26 177 187 226 17 253 297 330 322 314 44 4 12 333 328 332 337 337 336 342 352 346 356 6 7 8 10 16 18 26 43 54 55 53 55 61 69
324 124 229 275 275 284 27 331 252 265 9 351 322 310 312 306 350 351 319 353 353 312 332 346 347 353 351 346 357 14 8 4 357 4 20 15 23 28 41 48 52 50 67 69
299 315 7 282 268 272 80 298 320 337 311 317 314 308 299 289 296 258 264 305 338 347 338 357 349 355 353 356 356 11 17 350 2 6 13 17 16 31 37 45 45 43 47 51
277 325 308 278 307 319 281 263 296 265 281 298 307 312 308 291 266 223 249 201 331 29 1 348 354 351 3 4 14 5 354 353 3 17 22 18 20 27 35 39 42 41 43 47
286 171 258 310 254 283 311 320 284 287 273 298 316 308 304 283 285 243 237 218 179 9 36 358 349 10 9 5 10 8 355 347 7 20 23 20 26 29 31 43 45 47 46 49
277 292 280 282 281 301 228 340 359 332 304 304 318 299 295 285 268 246 239 225 202 147 55 37 32 8 9 11 15 5 358 347 7 23 26 22 24 29 37 47 40 46 46 52
256 253 249 279 22 305 297 321 343 342 338 330 327 319 300 272 265 232 240 232 212 196 141 78 45 52 21 10 18 5 356 352 360 24 19 19 28 28 33 41 67 58 59 54